[[{"header":{"parameterUnit":"m.s-1","parameterCategory":1,"la1":30.2991,"la2":30.254,"lo1":-89.0895,"lo2":-89.0444,"dy":0.0017,"dx":0.0017,"nx":28,"ny":28,"refTime":"2023-11-22T09:00:00:Z","depth":0,"parameterNumber":2,"parameterNumberName":"U-component_of_WINDS"},"data":[0,0,0,0,0,0,0,0,0,0,0,0,0,0,0,0,0,0,0,0,0,0,0,0,0,0,0,0,0,0,0,0,0,0,0,0,0,0,0,0,0,0,0,0,0,0,0,0,0,0,0,0,0,0,0,0,0,0,3.4004,3.4004,0,3.4042,3.4042,3.4043,3.4009,3.4008,3.4006,3.4005,3.4043,3.4045,3.4047,0,0,0,0,0,0,0,0,0,0,0,0,0,3.3902,3.3904,3.4004,3.4004,3.4005,3.4042,3.4042,3.4043,3.4009,3.4007,3.4006,3.4004,3.4042,3.4045,3.4047,0,0,0,0,0,0,0,0,0,0,0,0,0,3.3943,3.3904,3.4003,3.3992,3.3992,3.4042,3.4042,3.4043,3.4009,3.4007,3.4005,3.4003,3.4041,3.4044,3.4048,3.411,0,0,3.4058,3.406,0,0,0,0,0,0,0,0,3.3941,3.3947,3.3993,3.3993,3.3993,3.4018,3.402,3.4065,3.401,3.4003,3.4005,3.4002,3.4036,3.404,3.4052,3.4112,3.4114,3.4059,3.4061,3.4062,3.4063,0,0,0,0,0,0,0,3.3938,3.3945,3.4019,3.3994,3.3994,3.3985,3.3989,3.4029,3.4031,3.4003,3.4001,3.4006,3.4036,3.4048,3.4052,3.4114,3.4059,3.4062,3.4064,3.4065,3.423,3.4232,0,0,0,0,0,0,3.3937,3.3943,3.4017,3.402,3.3961,3.3989,3.3993,3.4012,3.403,3.4031,3.4008,3.4004,3.4044,3.4048,3.4053,3.4128,3.4062,3.4065,3.4067,3.4227,3.423,3.4233,0,0,0,0,0,0,3.3935,3.3944,3.4016,3.3981,3.3989,3.3993,3.4015,3.4014,3.4027,3.4033,3.4034,3.402,3.4042,3.4049,3.4097,3.4129,3.4067,3.407,3.4225,3.4228,3.4231,3.4279,0,0,0,0,0,0,3.3932,3.3943,3.3967,3.3982,3.3991,3.4059,3.4017,3.4016,3.4033,3.4029,3.4045,3.4046,3.4041,3.4092,3.41,3.4133,3.4073,3.4222,3.4226,3.423,3.4274,3.4283,3.4291,0,0,0,0,0,3.3928,3.3978,3.3968,3.3977,3.4021,3.4061,3.4066,3.406,3.4036,3.406,3.4064,3.4046,3.4125,3.4097,3.4106,3.414,3.422,3.4225,3.423,3.427,3.4281,3.4291,0,0,0,0,0,0,3.3965,3.3979,3.3969,3.4025,3.4042,3.4055,3.4084,3.4071,3.4095,3.409,3.4081,3.4085,3.4136,3.4143,3.4112,3.4203,3.4168,3.4176,3.4196,3.4206,3.4215,3.4211,3.4076,0,0,0,0,0,3.398,3.4011,3.4022,3.407,3.408,3.4081,3.4098,3.4092,3.4109,3.4115,3.4123,3.4141,3.417,3.4189,3.4215,3.4276,3.4279,3.4304,3.4312,3.4319,3.4325,3.4358,3.4369,3.425,3.425,3.425,0,0,3.4011,3.4022,3.4042,3.4078,3.4091,3.4123,3.4087,3.4122,3.4146,3.4121,3.4167,3.4174,3.4192,3.4247,3.4272,3.4255,3.4359,3.4326,3.4331,3.4333,3.4365,3.4376,3.4386,3.4253,3.4253,3.4252,0,0,3.4083,3.4095,3.4137,3.4151,3.4171,3.4172,3.4182,3.4198,3.4201,3.4248,3.423,3.4258,3.4308,3.4322,3.4336,3.4417,3.44,3.4426,3.4469,3.4502,3.4511,3.4519,3.4548,3.4559,3.4432,3.4432,3.4432,0,3.4118,3.4166,3.416,3.4198,3.4214,3.4194,3.4236,3.425,3.4277,3.4289,3.427,3.4333,3.4344,3.4403,3.4423,3.4434,3.4446,3.4423,3.451,3.4519,3.4526,3.4554,3.4564,3.4435,3.4435,3.4434,3.4434,0,3.4209,3.4243,3.4275,3.4303,3.4323,3.4363,3.4363,3.4384,3.4377,3.438,3.4428,3.4441,3.4471,3.4485,3.4477,3.4542,3.4531,3.4512,3.4477,3.4541,3.4566,3.4577,3.4439,3.4438,3.4437,3.4437,0,0,3.4304,3.4329,3.4341,3.4354,3.4376,3.4402,3.4441,3.4471,3.449,3.451,3.4543,3.4587,3.4569,3.4585,3.458,3.4608,3.4672,3.4585,3.4585,3.4601,3.4745,3.4759,3.4771,3.4662,3.4664,3.4666,3.4743,0,3.4376,3.4445,3.4442,3.4506,3.4538,3.452,3.4555,3.4572,3.4576,3.4604,3.4609,3.464,3.4615,3.4624,3.4652,3.4658,3.47,3.4653,3.4692,3.4694,3.4687,3.4784,3.4799,3.4871,3.4753,3.4755,3.4756,0,3.447,3.4495,3.4563,3.4581,3.4594,3.4625,3.4653,3.4679,3.4699,3.4701,3.472,3.471,3.4751,3.4716,3.4772,3.474,3.4756,3.4762,3.4764,3.4767,3.4728,3.4789,3.4894,3.4905,3.4772,3.477,3.4769,0,3.4532,3.4582,3.4629,3.4641,3.4664,3.4686,3.4697,3.4714,3.4733,3.4757,3.477,3.4798,3.4814,3.4837,3.4836,3.4811,3.4893,3.4858,3.4895,3.4895,3.4911,3.491,3.502,3.4924,3.4924,3.4923,3.4923,0,3.4613,3.4655,3.4658,3.4687,3.4734,3.473,3.4777,3.4785,3.4801,3.4832,3.4819,3.4848,3.4845,3.4874,3.4874,3.492,3.4928,3.493,3.4929,3.4931,3.493,3.494,3.4935,3.4926,3.4926,3.4925,3.4925,0,3.4689,3.4693,3.4743,3.4761,3.4767,3.4801,3.4816,3.4844,3.4848,3.4887,3.4896,3.4903,3.4937,3.4939,3.4978,3.4978,3.5034,3.5028,3.5028,3.5026,3.5063,3.5059,3.5182,3.5198,3.5092,3.5093,3.5094,0,3.474,3.4772,3.4794,3.4814,3.4826,3.4858,3.4878,3.4876,3.4897,3.4923,3.4947,3.4981,3.5007,3.5062,3.5071,3.5101,3.5095,3.5137,3.51,3.5101,3.5095,3.5093,3.5097,3.5143,3.5144,3.5145,3.5146,0,3.483,3.4831,3.4859,3.489,3.4913,3.4936,3.4958,3.4975,3.4976,3.5,3.5035,3.5056,3.5097,3.513,3.516,3.5171,3.5159,3.5158,3.5168,3.5169,3.5167,3.5169,3.5046,3.5155,3.5154,3.5153,3.5153,3.5152,3.4895,3.4923,3.4944,3.4976,3.4993,3.5014,3.5041,3.505,3.5079,3.5112,3.511,3.5149,3.5169,3.5209,3.5222,3.5253,3.5239,3.5253,3.5257,3.526,3.5264,3.5164,3.5259,3.5258,3.5258,3.5258,3.5258,0,3.4984,3.4997,3.5027,3.5058,3.5085,3.5072,3.5096,3.5119,3.5153,3.5174,3.52,3.5242,3.5274,3.5286,3.5318,3.5341,3.5336,3.5349,3.5347,3.535,3.5275,3.5263,3.5352,3.5352,3.5352,3.5352,3.5352,3.5352,3.5034,3.5081,3.5084,3.514,3.5152,3.5191,3.5206,3.5225,3.5242,3.5288,3.5316,3.5324,3.5341,3.5374,3.5404,3.5407,3.5419,3.5434,3.5435,3.5364,3.5355,3.5346,3.5334,3.5437,3.5437,3.5507,3.5507,3.5508]},{"header":{"parameterUnit":"m.s-1","parameterCategory":1,"la1":30.2991,"la2":30.254,"lo1":-89.0895,"lo2":-89.0444,"dy":0.0017,"dx":0.0017,"nx":28,"ny":28,"refTime":"2023-11-22T09:00:00:Z","depth":0,"parameterNumber":3,"parameterNumberName":"V-component_of_WINDS"},"data":[0,0,0,0,0,0,0,0,0,0,0,0,0,0,0,0,0,0,0,0,0,0,0,0,0,0,0,0,0,0,0,0,0,0,0,0,0,0,0,0,0,0,0,0,0,0,0,0,0,0,0,0,0,0,0,0,0,0,-6.2871,-6.2873,0,-6.3082,-6.3085,-6.3087,-6.3059,-6.3056,-6.3052,-6.3049,-6.3265,-6.3273,-6.3282,0,0,0,0,0,0,0,0,0,0,0,0,0,-6.2443,-6.2451,-6.2871,-6.2874,-6.2876,-6.3082,-6.3085,-6.3088,-6.306,-6.3056,-6.3052,-6.3048,-6.3262,-6.3272,-6.3283,0,0,0,0,0,0,0,0,0,0,0,0,0,-6.2639,-6.2454,-6.287,-6.2887,-6.2891,-6.3081,-6.3085,-6.3088,-6.3061,-6.3056,-6.305,-6.3046,-6.3258,-6.3271,-6.3284,-6.3471,0,0,-6.3326,-6.3331,0,0,0,0,0,0,0,0,-6.2628,-6.2655,-6.2882,-6.2886,-6.2891,-6.3039,-6.3013,-6.3217,-6.3062,-6.2996,-6.3049,-6.3043,-6.3194,-6.3212,-6.3263,-6.3481,-6.3491,-6.3327,-6.3335,-6.3341,-6.3344,0,0,0,0,0,0,0,-6.2615,-6.2646,-6.2954,-6.2885,-6.2891,-6.2884,-6.2906,-6.3051,-6.3122,-6.3002,-6.3,-6.3026,-6.3195,-6.325,-6.3268,-6.3494,-6.3326,-6.3338,-6.3347,-6.3352,-6.3877,-6.3882,0,0,0,0,0,0,-6.2597,-6.2635,-6.2948,-6.2961,-6.2744,-6.2896,-6.2921,-6.2997,-6.312,-6.3134,-6.303,-6.3023,-6.323,-6.3252,-6.3275,-6.3503,-6.3341,-6.3353,-6.3361,-6.3871,-6.3878,-6.3884,0,0,0,0,0,0,-6.2588,-6.2625,-6.2939,-6.2798,-6.2837,-6.2909,-6.2995,-6.3004,-6.3059,-6.3141,-6.3153,-6.3073,-6.3227,-6.3256,-6.3423,-6.351,-6.3359,-6.3371,-6.3864,-6.3873,-6.3881,-6.3959,0,0,0,0,0,0,-6.2576,-6.2622,-6.2694,-6.2799,-6.2845,-6.3084,-6.3,-6.3012,-6.3082,-6.3076,-6.3185,-6.3198,-6.3225,-6.3403,-6.3436,-6.3526,-6.3382,-6.3857,-6.3868,-6.3878,-6.3949,-6.397,-6.3987,0,0,0,0,0,-6.256,-6.2707,-6.2698,-6.2736,-6.2936,-6.3089,-6.3115,-6.3142,-6.3089,-6.3162,-6.3215,-6.3195,-6.3495,-6.342,-6.3458,-6.3552,-6.3851,-6.3865,-6.3878,-6.3941,-6.3966,-6.3987,0,0,0,0,0,0,-6.261,-6.2721,-6.2712,-6.2897,-6.2984,-6.3084,-6.3177,-6.3168,-6.3271,-6.3261,-6.3291,-6.3316,-6.3484,-6.3535,-6.345,-6.374,-6.3666,-6.3687,-6.3701,-6.3725,-6.3744,-6.3728,-6.3393,0,0,0,0,0,-6.2642,-6.2757,-6.2848,-6.3003,-6.3047,-6.3104,-6.3172,-6.3186,-6.3277,-6.3313,-6.3378,-6.3467,-6.3581,-6.3656,-6.3766,-6.3956,-6.398,-6.404,-6.4059,-6.4074,-6.4092,-6.4197,-6.4225,-6.3928,-6.3928,-6.3928,0,0,-6.271,-6.2785,-6.2856,-6.3014,-6.3083,-6.3202,-6.3135,-6.3263,-6.3351,-6.3332,-6.3494,-6.3545,-6.3646,-6.3826,-6.3908,-6.3873,-6.4179,-6.4091,-6.4102,-6.4112,-6.4214,-6.4242,-6.4267,-6.3937,-6.3935,-6.3934,0,0,-6.2895,-6.2963,-6.31,-6.317,-6.3275,-6.3313,-6.3345,-6.3448,-6.3481,-6.3643,-6.3632,-6.3737,-6.3933,-6.4006,-6.4068,-6.4281,-6.4267,-6.4316,-6.4415,-6.4517,-6.4541,-6.4562,-6.4638,-6.4665,-6.4334,-6.4334,-6.4334,0,-6.2966,-6.3144,-6.3171,-6.3301,-6.3371,-6.336,-6.3498,-6.3565,-6.3701,-6.3749,-6.3708,-6.3955,-6.4022,-6.4219,-6.4271,-6.4322,-6.436,-6.4304,-6.4535,-6.4557,-6.4576,-6.465,-6.4678,-6.4339,-6.4339,-6.4338,-6.4338,0,-6.3227,-6.3351,-6.3448,-6.358,-6.3661,-6.3795,-6.3842,-6.3921,-6.3928,-6.3969,-6.4135,-6.4216,-6.4342,-6.4389,-6.4397,-6.4588,-6.4563,-6.4528,-6.4454,-6.461,-6.4679,-6.4707,-6.4347,-6.4345,-6.4344,-6.4342,0,0,-6.3449,-6.3594,-6.3629,-6.3689,-6.3805,-6.3901,-6.4034,-6.4158,-6.4225,-6.4319,-6.4431,-6.4598,-6.4567,-6.4638,-6.4654,-6.4744,-6.4908,-6.4698,-6.4701,-6.4735,-6.5124,-6.5149,-6.5181,-6.4899,-6.4904,-6.4908,-6.5115,0,-6.3645,-6.3881,-6.3909,-6.4119,-6.4234,-6.4225,-6.4341,-6.4424,-6.4467,-6.457,-6.4617,-6.4735,-6.4685,-6.4728,-6.4816,-6.4869,-6.4986,-6.4855,-6.5004,-6.5009,-6.498,-6.5218,-6.5245,-6.5436,-6.5142,-6.5147,-6.515,0,-6.3906,-6.4008,-6.4229,-6.4329,-6.4379,-6.4483,-6.4599,-6.4698,-6.4792,-6.4817,-6.4897,-6.4901,-6.5038,-6.4959,-6.5149,-6.5058,-6.5121,-6.5156,-6.5164,-6.518,-6.509,-6.524,-6.5498,-6.5527,-6.5193,-6.519,-6.5187,0,-6.4047,-6.4239,-6.4397,-6.4448,-6.4568,-6.4642,-6.4695,-6.4784,-6.4857,-6.4958,-6.5006,-6.5122,-6.5185,-6.5275,-6.531,-6.5249,-6.5499,-6.5421,-6.5523,-6.5523,-6.5577,-6.5573,-6.5849,-6.5616,-6.5616,-6.5615,-6.5615,0,-6.4264,-6.44,-6.4461,-6.4558,-6.4711,-6.4741,-6.4891,-6.4941,-6.5021,-6.5128,-6.5126,-6.5226,-6.5267,-6.5374,-6.5402,-6.5556,-6.5584,-6.5608,-6.5614,-6.5609,-6.5606,-6.5651,-6.5639,-6.5623,-6.5621,-6.562,-6.5618,0,-6.4447,-6.4493,-6.4665,-6.4765,-6.4793,-6.4901,-6.4986,-6.508,-6.5122,-6.5257,-6.529,-6.5355,-6.5481,-6.5525,-6.5677,-6.5696,-6.5874,-6.5869,-6.5843,-6.5844,-6.5944,-6.5934,-6.6259,-6.6304,-6.6041,-6.6043,-6.6045,0,-6.4582,-6.4687,-6.4798,-6.487,-6.4926,-6.5041,-6.5116,-6.515,-6.5227,-6.5343,-6.5423,-6.5548,-6.5649,-6.585,-6.5911,-6.6027,-6.6025,-6.6131,-6.6043,-6.6034,-6.6028,-6.6021,-6.6032,-6.6148,-6.615,-6.6152,-6.6154,0,-6.4819,-6.4837,-6.4944,-6.506,-6.5149,-6.5242,-6.5332,-6.5391,-6.5438,-6.5525,-6.5654,-6.5733,-6.5888,-6.6012,-6.6132,-6.6186,-6.6179,-6.6181,-6.6211,-6.6207,-6.6188,-6.6201,-6.5889,-6.6174,-6.6172,-6.6171,-6.617,-6.6169,-6.4983,-6.5076,-6.5169,-6.5288,-6.536,-6.5444,-6.5537,-6.5591,-6.5698,-6.5828,-6.5842,-6.598,-6.6072,-6.6231,-6.6292,-6.6401,-6.6371,-6.6414,-6.6426,-6.6436,-6.6444,-6.617,-6.6422,-6.6422,-6.6421,-6.6421,-6.6421,0,-6.522,-6.5279,-6.5389,-6.5515,-6.561,-6.5594,-6.5693,-6.5773,-6.5895,-6.5982,-6.6082,-6.623,-6.635,-6.642,-6.6541,-6.6615,-6.6614,-6.6645,-6.664,-6.6653,-6.6463,-6.6425,-6.6644,-6.6643,-6.6643,-6.6643,-6.6643,-6.6643,-6.5354,-6.551,-6.554,-6.5731,-6.579,-6.5926,-6.5984,-6.6062,-6.6131,-6.6296,-6.6396,-6.6441,-6.6522,-6.6648,-6.6758,-6.6775,-6.682,-6.6854,-6.6869,-6.669,-6.6667,-6.6645,-6.661,-6.6863,-6.6864,-6.7051,-6.7053,-6.7054]}]]